Gulf Shores - Orange Beach - Perdido Key Weather Center

Moon Phase Calendar



Online Cameras

 


      

Current Conditions in Orange Beach
10/6/2022 2:21:18 PM

82°F
Feels Like 83
Clouds
Humidity
53%
Pressure
30.06"
Wind
9.2 mph (NW)
Dew Point
63°F
UV Index
7/10 (High)
Visibility
6 mi

Hourly Forecast

Date & Time Thu, Oct 6
2:00 PM
Thu, Oct 6
3:00 PM
Thu, Oct 6
4:00 PM
Thu, Oct 6
5:00 PM
Thu, Oct 6
6:00 PM
Thu, Oct 6
7:00 PM
Thu, Oct 6
8:00 PM
Thu, Oct 6
9:00 PM
Thu, Oct 6
10:00 PM
Thu, Oct 6
11:00 PM
Fri, Oct 7
12:00 AM
Fri, Oct 7
1:00 AM
Fri, Oct 7
2:00 AM
Fri, Oct 7
3:00 AM
Fri, Oct 7
4:00 AM
Fri, Oct 7
5:00 AM
Fri, Oct 7
6:00 AM
Fri, Oct 7
7:00 AM
Fri, Oct 7
8:00 AM
Fri, Oct 7
9:00 AM
Fri, Oct 7
10:00 AM
Fri, Oct 7
11:00 AM
Fri, Oct 7
12:00 PM
Fri, Oct 7
1:00 PM
Fri, Oct 7
2:00 PM
Fri, Oct 7
3:00 PM
Fri, Oct 7
4:00 PM
Fri, Oct 7
5:00 PM
Fri, Oct 7
6:00 PM
Fri, Oct 7
7:00 PM
Fri, Oct 7
8:00 PM
Fri, Oct 7
9:00 PM
Fri, Oct 7
10:00 PM
Fri, Oct 7
11:00 PM
Sat, Oct 8
12:00 AM
Sat, Oct 8
1:00 AM
Sat, Oct 8
2:00 AM
Sat, Oct 8
3:00 AM
Sat, Oct 8
4:00 AM
Sat, Oct 8
5:00 AM
Sat, Oct 8
6:00 AM
Sat, Oct 8
7:00 AM
Sat, Oct 8
8:00 AM
Sat, Oct 8
9:00 AM
Sat, Oct 8
10:00 AM
Sat, Oct 8
11:00 AM
Sat, Oct 8
12:00 PM
Sat, Oct 8
1:00 PM
Condition
Clouds

Clouds

Clouds

Clear

Clear

Clear

Clouds

Clouds

Clouds

Clouds

Clouds

Clouds

Clouds

Clouds

Clouds

Clouds

Clouds

Clouds

Clouds

Clouds

Clouds

Clouds

Clouds

Clouds

Clouds

Clouds

Clouds

Clouds

Clouds

Clouds

Clouds

Clouds

Clouds

Clouds

Clouds

Clouds

Clouds

Clouds

Clouds

Clouds

Clouds

Clouds

Clouds

Clouds

Clouds

Clouds

Clouds

Clouds
Temperature 82°F81°F81°F80°F77°F75°F74°F74°F74°F73°F73°F72°F72°F71°F70°F70°F69°F68°F70°F72°F75°F78°F80°F80°F80°F80°F80°F79°F77°F75°F75°F75°F74°F74°F73°F72°F72°F71°F71°F71°F70°F70°F70°F72°F76°F79°F82°F82°F
Feels Like 83°F82°F82°F80°F78°F75°F75°F74°F74°F74°F73°F73°F73°F72°F71°F70°F69°F69°F70°F72°F75°F78°F80°F80°F80°F80°F80°F79°F77°F76°F75°F75°F74°F74°F73°F72°F71°F71°F70°F70°F69°F69°F69°F72°F76°F79°F81°F82°F
Cloudiness 20%16%13%10%9%10%14%31%38%48%49%43%60%43%44%55%59%62%100%100%73%62%61%61%96%60%49%57%65%71%64%59%58%67%72%76%100%100%100%100%100%99%98%98%87%74%68%72%
Visibility 6 mi6 mi6 mi6 mi6 mi6 mi6 mi6 mi6 mi6 mi6 mi6 mi6 mi6 mi6 mi6 mi6 mi6 mi6 mi6 mi6 mi6 mi6 mi6 mi6 mi6 mi6 mi6 mi6 mi6 mi6 mi6 mi6 mi6 mi6 mi6 mi6 mi6 mi6 mi6 mi6 mi6 mi6 mi6 mi6 mi6 mi6 mi6 mi
Precipitation 0%0%0%0%0%0%0%0%0%0%0%0%0%0%0%0%0%0%0%0%0%0%0%0%0%0%0%0%0%0%0%0%0%0%0%0%0%0%0%0%0%0%0%0%0%0%0%0%
Humidity 53%51%51%52%58%63%66%68%69%72%75%76%77%78%80%80%79%78%73%65%55%46%44%46%47%47%49%52%58%61%63%65%65%66%66%65%62%60%55%53%54%56%57%54%49%45%44%43%
Dew Point 63°F61°F61°F61°F62°F61°F62°F63°F63°F64°F64°F64°F64°F64°F64°F63°F62°F61°F60°F59°F58°F55°F55°F56°F56°F56°F58°F59°F61°F61°F62°F62°F62°F61°F61°F60°F58°F56°F54°F53°F53°F53°F54°F55°F55°F56°F57°F57°F
Pressure 30.06"30.06"30.06"30.03"30.06"30.06"30.09"30.09"30.12"30.12"30.12"30.09"30.09"30.09"30.09"30.09"30.12"30.12"30.15"30.15"30.15"30.15"30.15"30.12"30.09"30.06"30.06"30.06"30.09"30.09"30.12"30.12"30.12"30.12"30.12"30.12"30.12"30.12"30.12"30.12"30.15"30.18"30.18"30.21"30.21"30.21"30.18"30.15"
Wind Speed 6.6 mph7.6 mph8.6 mph8.5 mph7.6 mph6.8 mph6.8 mph7.3 mph7 mph7 mph6.8 mph6.4 mph6.8 mph7.6 mph7.1 mph6.1 mph5.4 mph5.7 mph5.3 mph5.6 mph4.6 mph2.4 mph1.9 mph4.1 mph6 mph7.8 mph8.3 mph8 mph7 mph6.6 mph7.2 mph6.6 mph6.8 mph6.8 mph7.1 mph6.7 mph6.9 mph8.7 mph9.2 mph10.1 mph11.4 mph12.3 mph12.8 mph13.8 mph13.9 mph12.7 mph10.8 mph9.6 mph
Wind
Direction
223°
SW
217°
SW
217°
SW
216°
SW
218°
SW
223°
SW
235°
SW
243°
WSW
263°
W
286°
WNW
294°
WNW
295°
WNW
298°
WNW
304°
NW
312°
NW
326°
NW
341°
NNW
358°
N

N

N
13°
NNE
35°
NE
163°
SSE
185°
S
191°
S
195°
SSW
201°
SSW
201°
SSW
211°
SSW
227°
SW
253°
WSW
270°
W
293°
WNW
305°
NW
320°
NW
339°
NNW
358°
N
10°
N
27°
NNE
28°
NNE
32°
NNE
35°
NE
33°
NNE
33°
NNE
34°
NE
36°
NE
34°
NE
27°
NNE

Daily Forecast

Date High Low Precip. Humidity
Today
Oct 6

Clouds
82 °F
67 °F
0%
49%
Friday
Oct 7

Clouds
80 °F
68 °F
0%
44%
Saturday
Oct 8

Clouds
83 °F
70 °F
0%
43%
Sunday
Oct 9

Clouds
80 °F
62 °F
0%
29%
Monday
Oct 10

Clear
82 °F
60 °F
0%
26%
Tuesday
Oct 11

Clouds
79 °F
66 °F
0%
63%
Wednesday
Oct 12

Clouds
79 °F
72 °F
21%
70%
Thursday
Oct 13

Rain
80 °F
74 °F
98%
71%
Friday
Oct 14

Rain
84 °F
71 °F
69%
46%
Saturday
Oct 15

Clear
76 °F
60 °F
0%
21%
Sunday
Oct 16

Clear
70 °F
54 °F
0%
20%
Monday
Oct 17

Clear
74 °F
63 °F
0%
36%
Tuesday
Oct 18

Clouds
76 °F
62 °F
0%
47%
Wednesday
Oct 19

Clouds
71 °F
52 °F
0%
22%
Thursday
Oct 20

Clear
72 °F
54 °F
0%
29%
Friday
Oct 21

Clear
72 °F
59 °F
0%
52%

Temperature 8-14 Day Outlook



Precipitation 8-14 Day Outlook




Quick Links
Gulf Shores - Orange Beach - Perdido Key News
Gulf Shores - Orange Beach - Perdido Key Photos
Gulf Shores - Orange Beach - Perdido Key Videos




About Us
Contact Us
Site Map
Search Site
Advertise With Us
   
GulfShores.USGulf.info
THE GULF SHORES - ORANGE BEACH - PERDIDO KEY WEBSITE

Copyright 2022, Coastal Town
Privacy    |    Legal